Wind_Speed
6 3 1 1 1 0 8 11 12 14 15 18 18 15 14 11 10 9 9 9 9 10 12 13 14 14 14 16 17 17 17 17 16 16 16 15 14 14 16 16 15 15 16
7 5 5 4 3 2 5 14 17 16 17 16 19 19 15 13 10 9 9 9 10 11 11 12 13 14 16 17 16 16 17 16 17 16 16 16 19 21 21 20 17 16 16
8 8 8 8 8 7 7 15 26 23 19 16 14 19 16 12 10 9 8 8 9 10 12 11 13 13 16 15 16 16 16 17 17 18 17 22 22 20 20 16 16 17 16
7 8 7 8 7 10 10 19 20 19 18 15 15 16 16 11 9 10 9 8 9 11 11 10 11 16 17 16 17 16 18 17 18 22 21 22 20 18 17 16 17 15 15
6 7 8 7 7 9 5 8 12 17 17 16 16 15 14 11 9 9 10 11 12 12 13 16 21 21 18 17 18 18 21 23 25 23 21 20 19 17 17 16 15 15 15
9 6 10 8 8 10 9 11 16 17 16 15 14 13 11 9 10 10 11 12 11 14 22 23 20 21 19 17 19 18 24 26 23 19 19 18 19 17 15 15 15 16 16
9 7 10 10 10 11 12 12 12 13 14 14 13 13 12 11 11 11 12 13 15 18 24 22 21 20 20 17 19 23 26 22 20 17 19 20 17 16 15 15 16 15 16
9 8 9 10 10 10 11 12 12 12 12 12 12 13 13 11 10 10 13 14 16 18 21 20 19 20 20 19 23 25 25 19 16 19 19 17 18 16 16 16 15 17 18
9 8 8 9 10 10 10 11 11 12 13 13 12 14 14 12 12 10 12 13 14 17 14 18 18 18 18 22 27 22 22 18 16 19 17 18 17 17 17 16 18 20 19
6 5 6 6 6 12 10 10 12 13 12 13 14 15 12 13 12 12 13 15 14 18 22 18 18 16 19 26 27 24 21 18 15 18 17 18 17 17 19 20 19 19 19
6 1 8 8 10 9 9 11 12 13 13 13 14 14 13 14 14 18 22 24 25 21 20 19 17 19 24 25 24 23 21 17 15 17 17 16 17 18 18 19 18 19 19
3 5 8 11 9 11 12 12 12 13 15 16 15 13 13 14 16 19 22 21 20 19 18 18 20 22 24 23 21 22 21 16 14 16 15 15 16 18 18 19 21 20 20
3 3 3 4 7 8 13 14 13 13 15 16 16 15 14 15 16 19 24 24 17 18 19 18 22 25 23 21 18 20 18 14 15 15 14 14 16 16 19 22 23 20 20
3 3 6 1 8 9 14 15 13 14 17 15 14 14 13 15 17 16 18 19 18 19 19 20 22 25 24 19 15 17 16 14 14 13 12 13 15 15 17 20 21 22 21
2 1 3 5 13 6 12 15 12 16 19 17 15 15 14 15 19 17 17 20 19 16 19 21 22 24 23 19 16 14 15 14 12 11 11 12 13 13 14 17 21 22 21
2 3 2 2 4 15 18 20 16 20 19 17 16 16 16 17 18 18 17 19 20 18 20 22 23 22 22 20 15 13 13 13 11 10 10 10 10 13 14 15 17 20 21
5 7 6 8 15 17 18 17 18 19 19 17 15 15 16 18 20 20 18 20 20 21 22 23 24 22 20 18 16 14 12 12 10 10 9 7 5 9 10 13 16 17 20
6 3 9 10 12 15 18 18 20 19 17 18 18 16 17 18 21 19 17 18 20 19 20 24 22 21 20 17 15 14 13 11 10 9 9 5 5 6 9 12 11 14 17
8 8 11 13 15 15 20 16 19 18 16 17 17 15 16 18 23 22 21 20 18 21 22 22 22 20 21 20 18 16 11 9 9 9 7 5 4 4 6 9 11 17 15
9 7 9 15 13 13 14 17 18 17 15 15 15 15 15 17 20 22 24 21 20 16 19 16 21 21 17 14 12 13 12 7 7 5 3 2 5 2 5 2 12 12 17
11 9 9 8 11 9 12 14 15 14 14 15 17 18 18 19 20 26 22 19 18 19 18 17 18 19 14 10 6 6 6 6 2 4 2 5 5 5 2 6 10 10 13
11 10 8 7 6 6 6 8 12 15 14 12 12 16 21 19 18 17 15 19 20 18 9 13 13 13 12 10 9 8 6 3 4 6 8 6 6 6 5 7 11 5 8
12 10 9 8 7 8 8 9 11 11 12 12 14 14 21 21 18 17 15 15 16 7 11 11 13 15 12 10 7 6 7 3 3 7 6 9 6 7 5 7 7 8 8
12 10 9 9 8 9 9 7 7 10 11 13 16 15 13 17 19 21 23 19 15 16 13 14 17 13 11 10 7 6 6 7 7 8 14 9 7 7 5 7 6 8 9
15 14 11 11 10 9 9 10 10 10 10 11 12 14 15 16 18 22 24 21 20 19 16 17 14 11 4 6 7 7 7 8 11 7 12 6 12 13 6 6 7 8 6
15 14 13 12 11 10 11 11 11 12 11 11 12 13 13 16 17 19 23 23 18 20 11 12 12 13 10 11 5 7 7 7 8 5 7 4 5 6 6 7 11 8 8
Wind_Direction
88 95 80 352 259 348 173 186 194 179 180 192 171 163 165 161 148 143 131 116 101 92 95 97 99 99 98 99 97 96 96 96 99 97 96 93 86 81 81 79 75 73 71
92 88 86 105 203 203 188 197 173 165 163 155 158 155 159 154 144 136 128 118 107 98 100 99 100 102 105 102 95 97 100 99 95 90 87 83 83 85 82 78 76 69 64
77 59 60 65 72 79 160 169 175 161 163 163 172 167 151 140 143 133 125 114 109 105 100 98 99 112 117 103 105 98 94 92 87 84 83 91 87 82 76 72 65 64 61
80 90 74 71 85 68 128 162 160 150 148 155 165 161 160 149 145 136 124 117 108 104 100 101 116 119 117 108 100 103 93 87 88 94 94 88 83 74 72 68 63 58 52
92 105 110 87 85 84 78 116 135 137 148 156 154 154 161 150 144 133 120 115 108 101 115 109 126 119 111 107 104 95 102 97 97 94 91 83 79 72 66 61 58 52 45
116 133 128 129 116 122 125 130 138 142 147 149 149 154 151 141 133 125 123 121 113 96 129 113 120 120 115 107 100 94 97 99 96 97 90 81 73 67 63 56 50 43 40
118 137 132 142 146 142 140 144 139 136 133 131 134 134 135 135 134 135 131 125 117 112 121 122 123 120 111 105 97 106 103 99 102 96 85 78 73 65 54 49 42 38 39
111 120 123 140 154 154 147 139 137 135 130 131 128 124 126 127 128 138 144 129 126 122 121 126 125 119 114 112 110 115 108 106 101 91 84 78 71 58 50 42 36 39 46
106 115 141 141 152 160 156 146 141 132 128 122 121 123 123 107 107 130 147 148 136 142 133 135 124 122 119 119 118 115 107 106 100 89 84 76 65 54 45 41 46 49 53
78 100 114 145 142 160 161 160 151 146 141 133 130 127 107 102 112 119 153 160 138 135 137 130 125 118 120 125 122 116 112 105 93 89 81 72 62 51 44 44 48 52 52
88 289 147 151 158 154 158 171 161 152 143 136 135 134 124 115 116 113 120 130 131 134 134 127 116 119 126 127 123 120 111 103 94 88 81 72 62 53 46 48 51 50 49
192 339 192 139 155 168 170 169 166 160 148 148 143 135 131 129 126 130 125 130 131 128 123 119 120 125 130 130 129 121 110 105 100 89 83 73 65 54 48 49 49 49 47
91 56 196 193 172 188 176 175 173 165 164 156 145 138 138 138 136 134 136 130 137 129 125 126 131 132 132 130 130 117 111 111 100 93 85 73 65 50 45 46 44 43 45
72 80 201 30 170 193 180 183 178 179 163 157 148 141 139 152 147 143 137 142 140 132 131 133 136 133 130 130 133 116 114 110 100 95 83 72 59 47 42 42 41 37 41
52 23 256 206 171 169 167 186 178 169 157 162 158 150 152 157 156 153 143 135 134 135 129 137 138 136 135 137 138 129 114 108 100 92 86 75 56 47 38 34 36 30 33
86 165 182 156 134 150 166 174 164 156 156 163 157 157 158 156 159 155 143 139 137 142 139 140 139 141 145 147 150 130 123 111 112 102 87 77 60 47 34 28 28 26 25
98 119 101 108 137 141 141 159 161 162 162 157 152 160 156 157 170 161 148 152 146 143 143 144 146 154 155 157 150 143 133 126 127 117 104 94 56 27 35 33 23 23 24
117 247 123 135 138 131 147 166 167 168 161 151 159 163 157 163 166 162 156 154 152 142 149 150 157 156 163 162 160 153 145 144 132 122 116 97 82 45 43 36 17 21 27
116 141 139 150 140 143 150 158 166 167 162 156 166 167 167 162 169 172 164 155 161 155 154 159 159 165 172 174 170 158 157 155 136 129 119 116 76 17 52 31 19 29 26
134 147 148 151 153 149 159 158 161 161 167 165 170 169 172 177 175 181 168 159 156 162 161 163 173 173 177 176 176 170 160 168 177 144 107 116 122 120 51 44 41 25 26
140 138 150 137 160 169 162 162 158 160 174 177 169 173 173 189 187 183 178 161 151 175 182 169 185 178 171 167 177 216 198 184 66 30 322 335 359 359 8 72 36 23 14
142 142 155 131 145 158 166 161 162 180 181 182 167 175 173 185 193 178 174 169 160 181 193 176 200 209 172 173 185 203 272 336 16 352 301 316 318 313 328 25 114 80 18
155 153 148 153 165 148 159 156 152 157 174 169 190 186 179 185 185 177 181 192 181 142 178 191 205 202 164 179 211 208 217 223 99 243 271 288 293 290 327 318 18 73 60
166 168 169 164 176 171 170 159 150 149 151 156 173 188 190 186 186 184 180 189 179 187 182 200 216 215 183 178 189 228 251 236 285 310 267 268 254 261 331 331 328 47 19
176 174 179 185 183 179 182 166 165 166 164 166 166 176 188 197 192 179 180 177 179 184 197 209 217 210 176 185 203 225 232 265 265 308 288 338 18 26 3 20 14 9 353
180 175 181 189 191 191 186 172 162 160 168 170 168 167 177 191 192 183 178 187 186 180 195 201 216 216 202 204 225 255 271 260 274 243 266 11 29 347 319 345 334 4 307
Height
5881 5882 5883 5883 5884 5886 5887 5889 5890 5891 5892 5893 5896 5900 5902 5904 5906 5907 5909 5909 5909 5910 5909 5911 5910 5912 5914 5913 5914 5914 5915 5917 5918 5918 5917 5918 5919 5918 5917 5916 5916 5915 5914
5883 5885 5884 5884 5885 5886 5887 5888 5890 5892 5894 5896 5897 5901 5903 5905 5906 5908 5909 5910 5910 5911 5912 5912 5913 5914 5915 5915 5915 5916 5916 5918 5919 5919 5919 5920 5919 5920 5918 5918 5918 5917 5917
5883 5884 5885 5885 5885 5885 5886 5887 5889 5891 5896 5898 5900 5902 5903 5905 5907 5908 5909 5910 5912 5913 5914 5914 5915 5917 5918 5916 5916 5917 5918 5919 5918 5919 5922 5922 5922 5922 5920 5921 5920 5919 5919
5884 5885 5887 5889 5888 5888 5889 5890 5891 5892 5895 5898 5902 5903 5905 5907 5908 5909 5910 5912 5913 5914 5914 5915 5918 5919 5919 5917 5918 5920 5921 5921 5922 5922 5925 5923 5924 5923 5923 5922 5922 5921 5920
5887 5888 5889 5891 5892 5891 5892 5892 5893 5896 5898 5901 5902 5904 5907 5908 5908 5911 5912 5913 5915 5915 5916 5916 5918 5919 5920 5918 5921 5923 5924 5923 5925 5925 5926 5925 5925 5925 5925 5924 5923 5922 5921
5887 5891 5890 5892 5894 5894 5896 5897 5898 5899 5901 5903 5904 5907 5908 5909 5910 5912 5914 5915 5916 5917 5919 5919 5922 5922 5921 5923 5924 5925 5926 5927 5927 5929 5927 5927 5927 5927 5926 5926 5925 5923 5923
5888 5893 5891 5894 5895 5896 5897 5898 5900 5902 5904 5905 5907 5908 5909 5912 5912 5913 5915 5917 5918 5919 5920 5923 5924 5924 5924 5926 5926 5927 5928 5930 5930 5930 5929 5929 5929 5929 5929 5927 5926 5925 5923
5890 5892 5892 5895 5897 5898 5898 5899 5901 5904 5906 5908 5909 5910 5912 5914 5914 5915 5917 5918 5920 5921 5923 5924 5925 5926 5927 5930 5930 5931 5931 5933 5933 5932 5932 5931 5931 5932 5931 5930 5929 5927 5925
5889 5888 5892 5894 5896 5897 5898 5899 5902 5905 5908 5909 5911 5913 5915 5915 5915 5917 5918 5920 5921 5923 5924 5927 5927 5929 5931 5931 5932 5934 5934 5935 5936 5935 5934 5934 5935 5934 5933 5932 5931 5929 5927
5888 5890 5892 5895 5896 5897 5899 5901 5903 5906 5909 5912 5914 5916 5917 5917 5919 5919 5920 5921 5922 5924 5927 5928 5930 5933 5934 5934 5933 5936 5937 5938 5939 5938 5938 5938 5937 5937 5935 5934 5932 5931 5929
5885 5891 5892 5893 5895 5896 5898 5901 5903 5905 5910 5913 5915 5917 5918 5920 5921 5921 5922 5924 5926 5927 5929 5931 5933 5935 5936 5938 5938 5938 5938 5940 5943 5941 5940 5940 5940 5939 5938 5936 5935 5933 5932
5892 5891 5892 5893 5895 5897 5899 5902 5905 5907 5909 5913 5915 5918 5920 5922 5924 5925 5926 5928 5928 5929 5932 5935 5936 5938 5940 5941 5941 5941 5941 5944 5946 5942 5942 5943 5943 5942 5940 5938 5937 5935 5934
5893 5893 5895 5894 5894 5897 5898 5902 5906 5908 5910 5913 5915 5918 5922 5925 5926 5927 5928 5929 5931 5933 5935 5937 5939 5939 5943 5944 5946 5944 5945 5948 5945 5945 5945 5945 5945 5944 5943 5941 5939 5937 5936
5891 5892 5893 5894 5894 5896 5897 5902 5905 5907 5910 5915 5917 5920 5922 5926 5928 5929 5930 5931 5933 5935 5936 5938 5941 5943 5944 5947 5949 5947 5947 5949 5947 5948 5948 5949 5948 5946 5945 5943 5941 5939 5938
5893 5893 5894 5894 5897 5897 5898 5904 5906 5906 5911 5915 5917 5920 5923 5925 5928 5929 5931 5933 5935 5938 5939 5941 5944 5944 5944 5949 5950 5949 5949 5950 5951 5951 5951 5952 5950 5949 5947 5945 5943 5941 5939
5894 5895 5894 5895 5896 5895 5896 5904 5906 5907 5911 5916 5918 5920 5924 5925 5929 5931 5934 5935 5936 5939 5940 5943 5945 5946 5947 5950 5950 5950 5951 5951 5953 5953 5954 5954 5953 5952 5951 5948 5947 5946 5943
5891 5893 5897 5898 5897 5896 5901 5905 5908 5910 5912 5916 5919 5921 5924 5927 5930 5932 5935 5935 5937 5939 5941 5945 5945 5947 5949 5950 5950 5951 5951 5952 5953 5953 5954 5955 5955 5953 5952 5952 5951 5949 5945
5895 5892 5897 5898 5900 5901 5904 5907 5910 5913 5912 5916 5920 5922 5926 5930 5933 5936 5935 5937 5939 5941 5942 5943 5946 5947 5949 5949 5950 5952 5952 5953 5954 5954 5954 5956 5954 5952 5953 5952 5951 5948 5946
5895 5896 5899 5900 5901 5904 5908 5910 5911 5912 5914 5918 5921 5925 5929 5931 5931 5932 5932 5937 5943 5943 5944 5945 5945 5948 5948 5948 5949 5952 5954 5955 5955 5955 5955 5957 5955 5954 5952 5951 5950 5949 5949
5896 5897 5899 5903 5904 5907 5910 5912 5912 5912 5915 5920 5923 5927 5929 5930 5934 5936 5937 5938 5942 5948 5949 5947 5946 5947 5950 5952 5953 5953 5954 5957 5956 5958 5959 5958 5953 5953 5953 5952 5951 5948 5950
5897 5898 5900 5903 5907 5908 5911 5911 5911 5913 5916 5920 5924 5926 5931 5930 5935 5935 5941 5941 5943 5948 5950 5947 5949 5949 5951 5955 5958 5959 5958 5957 5961 5963 5963 5961 5960 5957 5954 5954 5950 5952 5951
5898 5900 5900 5903 5907 5910 5910 5911 5913 5914 5918 5920 5925 5926 5932 5934 5935 5939 5940 5942 5943 5949 5950 5949 5955 5956 5953 5956 5956 5958 5962 5963 5964 5964 5960 5962 5960 5957 5954 5956 5948 5946 5949
5898 5901 5902 5904 5908 5910 5912 5913 5915 5916 5917 5922 5924 5925 5931 5934 5934 5938 5940 5940 5943 5947 5949 5953 5956 5957 5952 5952 5957 5958 5960 5963 5961 5958 5960 5960 5959 5957 5959 5955 5955 5950 5950
5898 5900 5903 5906 5909 5912 5914 5915 5918 5918 5920 5924 5927 5927 5929 5934 5938 5942 5946 5946 5946 5949 5953 5953 5952 5955 5954 5952 5956 5957 5959 5959 5959 5956 5959 5958 5954 5957 5960 5954 5955 5948 5952
5898 5900 5904 5906 5910 5913 5917 5917 5920 5920 5923 5924 5928 5930 5931 5932 5936 5943 5946 5946 5948 5950 5952 5951 5954 5957 5958 5956 5956 5959 5957 5961 5960 5961 5960 5959 5954 5955 5956 5957 5952 5949 5952
5897 5899 5902 5906 5910 5913 5916 5918 5920 5922 5923 5926 5927 5930 5931 5932 5935 5939 5944 5945 5948 5951 5951 5952 5954 5953 5957 5955 5958 5958 5957 5960 5958 5959 5960 5959 5956 5957 5955 5953 5948 5949 5953